Probability
0 0 0 0 0 0 0 0 0 0 0 0 0 0 0 0 0 0 0 0 0 0 0 0 0 0 0 0 0 0 0 0 0 0 0 0 0 0 0 0 0 0 0 0
0 0 0 0 0 0 0 0 0 0 0 0 0 0 0 0 0 0 0 0 0 0 0 0 0 0 0 0 0 0 0 0 0 0 0 0 0 0 0 0 0 0 0 0
0 0 0 0 0 0 0 0 0 0 0 0 0 0 0 0 0 0 0 0 0 0 0 0 0 0 0 0 0 0 0 0 0 0 0 0 0 0 0 0 0 0 0 0
0 0 0 0 0 0 0 0 0 0 0 0 0 0 0 0 0 0 0 0 0 0 0 0 0 0 0 0 0 0 0 0 0 0 0 0 0 0 0 0 0 0 0 0
0 0 0 0 0 0 0 0 0 0 0 0 0 0 0 0 0 0 0 0 0 0 0 0 0 0 0 0 0 0 0 0 0 0 0 0 0 0 0 0 0 0 0 0
0 0 0 0 0 0 0 0 0 0 0 0 0 0 0 0 0 0 0 0 0 0 0 0 0 0 0 0 0 0 0 0 0 0 0 0 0 0 0 0 0 0 0 0
0 0 0 0 0 0 0 0 0 0 0 0 0 0 0 0 0 0 0 0 0 0 0 0 0 0 0 0 0 0 0 0 0 0 0 0 0 0 0 0 0 0 0 0
0 0 0 0 0 0 0 0 0 0 0 0 0 0 0 0 0 0 0 0 0 0 0 0 0 0 0 0 0 0 0 0 0 0 0 0 0 0 0 0 0 0 0 0
0 0 0 0 0 0 0 0 0 0 0 0 0 0 0 0 0 0 0 0 0 0 0 0 0 0 0 0 0 0 0 0 0 0 0 0 0 0 0 0 0 0 0 0
0 0 0 0 0 0 0 0 0 0 0 0 0 0 0 0 0 0 0 0 0 0 0 0 0 0 0 0 0 0 0 0 0 0 0 0 0 0 0 0 0 0 0 0
0 0 0 0 0 0 0 0 0 0 0 0 0 0 0 0 0 0 0 0 0 0 0 0 0 0 0 0 0 0 0 0 0 0 0 0 0 0 0 0 0 0 0 0
0 0 0 0 0 0 0 0 0 0 0 0 0 0 0 0 0 0 0 0 0 0 0 0 0 0 0 0 0 0 0 0 0 0 0 0 0 0 0 0 0 0 0 0
0 0 0 0 0 0 0 0 0 0 0 0 0 0 0 0 0 0 0 0 0 0 0 0 0 0 0 0 0 0 0 0 0 0 0 0 0 0 0 0 0 0 0 0
0 0 0 0 0 0 0 0 0 0 0 0 0 0 0 0 0 0 0 0 0 0 0 0 0 0 0 0 0 0 0 0 0 0 0 0 0 0 0 0 0 0 0 0
0 0 0 0 0 0 0 0 0 0 0 0 0 0 0 0 0 0 0 0 0 0 0 0 0 0 0 0 0 0 0 0 0 0 0 0 0 0 0 0 0 0 0 0
0 0 0 0 0 0 0 0 0 0 0 0 0 0 0 0 0 0 0 0 0 0 0 0 0 0 0 0 0 0 0 0 0 0 0 0 0 0 0 0 0 0 0 0
0 0 0 0 0 0 0 0 0 0 0 0 0 0 0 0 0 0 0 0 0 0 0 0 0 0 0 0 0 0 0 0 0 0 0 0 0 0 0 0 0 0 0 0
0 0 0 0 0 0 0 0 0 0 0 0 0 0 0 0 0 0 0 0 0 0 0 0 0 0 0 0 0 0 0 0 0 0 0 0 0 0 0 0 0 0 0 0
0 0 0 0 0 0 0 0 0 0 0 0 0 0 0 0 0 0 0 0 0 0 0 0 0 0 0 0 0 0 0 0 0 0 0 0 0 0 0 0 0 0 0 0
0 0 0 0 0 0 0 0 0 0 0 0 0 0 0 0 0 0 0 0 0 0 0 0 0 0 0 0 0 0 0 0 0 0 0 0 0 0 0 0 0 0 0 0
0 0 0 0 0 0 0 0 0 0 0 0 0 0 0 0 0 0 0 0 0 0 0 0 0 0 0 0 0 0 0 0 0 0 0 0 0 0 0 0 0 0 0 0
0 0 0 0 0 0 0 0 0 0 0 0 0 0 0 0 0 0 0 0 0 0 0 0 0 0 0 0 0 0 0 0 0 0 0 0 0 0 0 0 0 0 0 0
0 0 0 0 0 0 0 0 0 0 0 0 0 0 0 0 0 0 0 0 0 0 0 0 0 0 0 0 0 0 0 0 0 0 0 0 0 0 0 0 0 0 0 0
0 0 0 0 0 0 0 0 0 0 0 0 0 0 0 0 0 0 0 0 0 0 0 0 0 0 0 0 0 0 0 0 0 0 0 0 0 0 0 0 0 0 0 0
0 0 0 0 0 0 0 0 0 0 0 0 0 0 0 0 0 0 0 0 0 0 0 0 0 0 0 0 0 0 0 0 0 0 0 0 0 0 0 0 0 0 0 0
0 0 0 0 0 0 0 0 0 0 0 0 0 0 0 0 0 0 0 0 0 0 0 0 0 0 0 0 0 0 0 0 0 0 0 0 0 0 0 0 0 0 0 0
Height
5720 5720 5718 5718 5717 5717 5716 5716 5716 5716 5716 5716 5716 5717 5719 5719 5720 5721 5722 5723 5724 5725 5726 5727 5728 5730 5731 5734 5737 5739 5742 5744 5747 5750 5752 5755 5757 5759 5761 5763 5765 5767 5770 5772
5717 5716 5715 5713 5712 5711 5711 5711 5711 5712 5712 5711 5712 5713 5714 5715 5716 5717 5718 5719 5720 5722 5723 5724 5724 5725 5727 5729 5731 5734 5736 5738 5741 5744 5746 5748 5750 5752 5754 5756 5758 5760 5762 5763
5712 5711 5709 5708 5707 5707 5706 5706 5707 5708 5708 5707 5707 5709 5710 5711 5712 5712 5713 5715 5716 5718 5719 5719 5720 5722 5723 5724 5726 5729 5732 5733 5736 5738 5739 5741 5743 5745 5746 5748 5750 5752 5754 5755
5706 5705 5704 5703 5702 5701 5702 5702 5702 5702 5703 5703 5703 5704 5707 5707 5708 5708 5709 5711 5712 5713 5714 5714 5715 5717 5718 5720 5721 5723 5726 5728 5730 5732 5733 5735 5736 5738 5739 5741 5742 5744 5746 5747
5700 5699 5698 5697 5697 5696 5696 5696 5696 5697 5696 5697 5698 5698 5702 5702 5703 5704 5705 5706 5707 5707 5708 5709 5710 5712 5713 5715 5717 5718 5720 5722 5724 5725 5726 5727 5728 5730 5731 5733 5734 5736 5737 5739
5694 5693 5692 5691 5691 5690 5690 5690 5690 5690 5690 5692 5693 5692 5695 5697 5698 5699 5699 5700 5701 5702 5703 5704 5705 5706 5708 5709 5711 5712 5714 5715 5717 5717 5718 5719 5721 5722 5723 5725 5726 5727 5729 5730
5687 5686 5685 5684 5684 5684 5684 5684 5684 5683 5683 5685 5687 5686 5689 5691 5691 5692 5694 5695 5696 5697 5698 5698 5699 5700 5702 5703 5704 5705 5707 5708 5709 5710 5711 5712 5713 5714 5715 5716 5718 5719 5720 5722
5678 5679 5678 5677 5677 5677 5677 5677 5678 5677 5677 5679 5679 5679 5683 5684 5685 5686 5687 5688 5689 5690 5691 5692 5692 5694 5694 5696 5697 5698 5699 5700 5701 5702 5703 5704 5705 5706 5707 5708 5709 5710 5711 5713
5670 5671 5671 5670 5669 5669 5669 5669 5670 5670 5669 5670 5671 5673 5675 5676 5677 5679 5680 5681 5682 5683 5684 5685 5685 5686 5687 5687 5688 5689 5690 5691 5692 5693 5694 5695 5696 5697 5698 5699 5700 5700 5701 5703
5661 5661 5662 5661 5661 5661 5662 5662 5662 5662 5661 5661 5663 5665 5668 5668 5669 5671 5672 5673 5674 5675 5676 5677 5678 5678 5679 5679 5680 5681 5682 5682 5683 5684 5685 5685 5686 5687 5688 5689 5690 5691 5692 5693
5652 5652 5653 5653 5653 5653 5654 5654 5654 5654 5653 5654 5654 5659 5659 5660 5661 5662 5663 5664 5666 5667 5668 5668 5669 5669 5670 5670 5671 5671 5672 5673 5673 5674 5675 5675 5676 5677 5677 5678 5679 5680 5681 5682
5642 5641 5642 5644 5644 5643 5644 5645 5645 5646 5646 5645 5646 5652 5651 5652 5652 5653 5654 5654 5655 5657 5658 5658 5659 5659 5660 5660 5661 5661 5662 5662 5663 5663 5664 5664 5665 5666 5667 5668 5668 5669 5670 5671
5631 5631 5632 5633 5635 5635 5635 5635 5635 5635 5635 5636 5636 5642 5641 5642 5642 5643 5644 5644 5645 5646 5647 5648 5648 5649 5649 5650 5650 5651 5651 5651 5652 5652 5652 5653 5653 5654 5655 5656 5656 5657 5658 5659
5620 5620 5622 5623 5623 5623 5624 5625 5625 5625 5625 5626 5628 5630 5631 5631 5631 5632 5633 5634 5635 5635 5636 5637 5637 5638 5638 5638 5638 5639 5639 5640 5640 5641 5641 5641 5641 5642 5642 5643 5644 5645 5646 5647
5608 5609 5610 5611 5611 5612 5613 5614 5614 5614 5615 5615 5618 5618 5620 5619 5620 5620 5621 5622 5623 5624 5625 5625 5625 5626 5626 5626 5627 5627 5627 5627 5628 5628 5629 5629 5629 5630 5630 5631 5631 5632 5633 5634
5596 5597 5598 5599 5600 5599 5601 5603 5603 5603 5604 5604 5605 5607 5608 5607 5608 5608 5609 5610 5611 5612 5612 5612 5613 5613 5613 5614 5614 5614 5614 5615 5615 5615 5616 5616 5616 5617 5617 5618 5619 5619 5620 5621
5584 5584 5585 5587 5588 5586 5589 5592 5592 5592 5593 5593 5593 5597 5596 5596 5596 5596 5597 5598 5598 5599 5599 5600 5600 5601 5601 5601 5600 5600 5600 5600 5601 5602 5602 5603 5603 5603 5604 5604 5605 5606 5607 5608
5572 5572 5571 5572 5575 5574 5581 5579 5579 5579 5580 5580 5581 5582 5583 5582 5583 5583 5584 5585 5585 5586 5586 5587 5587 5588 5588 5588 5587 5587 5587 5587 5587 5587 5588 5588 5589 5590 5590 5591 5592 5593 5593 5594
5559 5559 5559 5559 5559 5561 5566 5566 5566 5566 5567 5568 5568 5569 5569 5569 5570 5571 5571 5571 5572 5572 5573 5573 5574 5574 5574 5574 5574 5573 5573 5573 5573 5573 5573 5573 5574 5575 5576 5576 5577 5578 5579 5580
5546 5546 5547 5547 5547 5549 5554 5553 5553 5553 5554 5555 5555 5555 5555 5555 5556 5558 5557 5558 5558 5558 5559 5560 5560 5560 5560 5560 5559 5559 5559 5559 5559 5558 5558 5559 5559 5560 5561 5561 5562 5562 5563 5564
5533 5533 5534 5535 5534 5536 5540 5539 5539 5541 5542 5541 5541 5541 5542 5542 5543 5544 5544 5544 5544 5545 5545 5545 5546 5546 5546 5546 5545 5545 5545 5544 5544 5544 5544 5544 5544 5545 5545 5546 5547 5547 5548 5549
5520 5521 5522 5522 5522 5526 5526 5526 5527 5527 5526 5527 5527 5527 5528 5528 5528 5529 5530 5530 5531 5531 5531 5531 5531 5532 5532 5531 5531 5530 5530 5529 5529 5529 5529 5529 5530 5530 5530 5531 5531 5531 5532 5533
5508 5510 5510 5511 5513 5513 5513 5513 5513 5513 5513 5513 5513 5514 5514 5514 5515 5515 5516 5516 5517 5517 5517 5517 5517 5517 5517 5517 5516 5516 5515 5514 5514 5514 5514 5514 5514 5515 5515 5515 5515 5516 5516 5516
5496 5496 5497 5497 5498 5499 5500 5500 5501 5501 5500 5500 5501 5501 5500 5500 5500 5501 5501 5502 5502 5502 5503 5502 5502 5502 5502 5502 5501 5501 5500 5499 5499 5499 5499 5499 5499 5500 5500 5500 5500 5500 5500 5500
5484 5484 5484 5484 5486 5486 5487 5488 5488 5488 5488 5488 5488 5488 5487 5487 5487 5487 5487 5488 5488 5488 5488 5488 5488 5488 5488 5487 5487 5486 5485 5485 5484 5484 5484 5484 5485 5485 5485 5485 5485 5485 5485 5484
5472 5472 5472 5474 5474 5475 5475 5476 5476 5476 5476 5475 5475 5475 5475 5474 5474 5474 5474 5474 5474 5474 5474 5474 5474 5474 5473 5473 5472 5472 5471 5470 5470 5470 5470 5470 5470 5470 5470 5470 5470 5470 5469 5469
Wind_Speed
17 17 17 17 18 18 18 18 18 19 19 19 19 18 19 20 20 20 20 20 20 20 21 21 21 22 23 24 25 28 28 30 30 29 28 30 31 32 33 34 34 34 35 35
18 18 17 18 18 18 18 18 18 19 20 20 20 19 20 19 20 20 21 21 21 21 21 21 21 23 24 24 26 27 28 29 30 31 30 31 31 32 33 34 35 35 35 36
18 18 19 19 20 20 20 20 20 21 21 22 22 21 21 21 20 21 21 20 21 21 21 21 22 23 24 24 25 27 29 29 30 30 30 32 32 33 35 36 36 36 37 37
19 19 20 20 20 20 21 21 21 22 22 23 24 23 21 21 21 21 21 21 21 21 22 22 23 23 25 25 26 27 28 30 31 30 30 31 32 33 33 34 35 36 38 39
21 21 21 21 21 22 22 22 23 24 24 24 24 25 22 22 22 22 22 22 22 22 23 23 24 24 25 26 27 26 28 30 31 31 30 30 31 32 33 33 34 36 36 38
23 23 23 23 23 23 24 24 24 25 26 26 24 26 24 24 23 23 24 24 23 23 23 24 25 26 27 28 28 28 29 30 31 31 31 33 33 34 35 34 35 37 38 37
25 24 24 24 24 24 24 25 25 26 27 27 26 27 25 24 25 24 25 25 24 24 24 25 26 27 28 29 30 30 32 33 33 34 34 34 35 35 35 35 36 37 38 39
27 26 25 25 25 25 25 25 26 27 28 27 27 27 26 24 25 27 27 27 27 27 28 28 28 28 29 30 31 32 33 34 35 36 36 36 36 36 36 36 37 37 38 39
29 28 26 26 25 25 25 25 26 27 29 30 30 28 27 26 26 27 28 29 29 29 28 28 29 29 29 30 31 33 34 34 36 37 39 39 39 38 38 39 38 38 38 39
30 30 28 27 27 26 26 26 27 27 28 30 30 30 29 27 27 27 27 29 30 30 30 29 29 31 31 32 33 34 35 35 36 37 38 40 40 40 40 40 40 40 39 40
32 32 30 29 28 28 27 28 29 30 30 31 30 29 29 29 29 29 29 30 30 31 31 32 31 31 32 33 34 35 35 36 38 38 39 40 41 41 40 40 40 41 42 41
33 33 32 32 31 31 31 30 31 31 32 32 33 32 30 30 30 30 30 31 32 32 33 33 34 34 34 34 35 36 36 37 38 39 39 40 40 41 41 41 41 41 42 43
34 35 35 35 34 34 33 32 33 33 34 34 34 34 32 31 31 32 33 33 34 35 35 36 36 37 37 36 37 37 38 38 39 39 39 40 40 41 41 42 42 43 43 43
36 37 36 36 36 35 35 34 35 36 36 36 36 35 34 35 34 34 35 35 36 37 37 38 38 38 38 38 38 39 39 40 40 41 41 41 42 42 43 43 43 44 44 44
37 37 37 37 37 37 37 36 37 38 37 38 37 37 36 37 37 38 38 38 38 39 39 40 39 39 39 39 40 40 41 42 42 43 43 43 43 44 44 44 43 44 45 46
40 40 40 39 39 40 40 39 39 39 39 40 40 39 38 40 41 41 41 40 40 41 41 41 41 41 41 41 41 42 43 44 44 44 44 45 45 45 45 45 45 45 45 46
42 42 42 42 40 41 41 39 39 40 40 41 41 39 39 41 42 43 43 43 43 43 43 43 43 43 43 43 43 43 44 45 46 46 46 46 47 46 46 46 46 46 46 46
42 42 43 43 42 43 40 39 39 40 40 40 41 40 40 42 43 44 45 45 45 45 45 44 44 44 45 45 44 44 45 46 47 47 48 48 48 47 47 47 47 46 47 47
42 42 42 43 43 43 41 39 39 40 40 40 41 41 42 43 44 45 45 45 45 45 44 45 45 45 46 46 46 46 46 47 47 48 48 49 49 49 49 49 49 48 48 48
41 41 41 42 42 43 41 41 42 42 42 42 42 42 42 43 44 44 45 45 45 44 45 45 45 46 46 46 47 47 47 47 47 48 48 49 50 50 50 50 50 50 50 49
40 40 40 41 42 43 42 43 42 42 42 41 42 42 42 43 44 44 45 45 45 45 45 45 46 46 46 46 47 47 47 47 48 48 48 49 50 51 51 51 50 51 51 51
39 40 40 41 42 42 41 42 41 41 41 41 41 41 42 43 43 44 44 45 45 45 45 46 46 46 46 46 47 47 47 47 47 48 48 49 49 50 50 50 51 51 51 52
40 40 40 41 41 41 40 40 40 40 41 41 42 42 43 43 44 44 45 45 45 45 46 46 46 46 46 46 46 46 47 47 48 48 48 48 48 49 49 50 51 52 52 52
38 39 39 39 39 40 40 39 39 40 42 42 42 42 42 43 43 43 44 44 44 44 45 45 46 46 46 46 47 47 47 48 48 48 48 48 47 47 48 49 50 51 52 52
37 38 38 38 37 38 38 39 40 40 41 41 41 41 41 42 42 42 42 43 43 43 43 44 44 44 44 45 46 47 47 48 48 47 47 47 47 47 47 48 49 49 50 51
35 36 37 36 35 36 36 37 38 39 40 40 40 40 40 41 41 41 42 42 42 43 43 43 43 43 44 44 45 45 46 46 46 46 46 46 46 47 47 47 47 48 48 48
Wind_Direction
282 277 272 269 266 266 267 267 265 265 264 264 265 260 248 245 244 245 244 243 245 246 249 250 246 242 240 239 239 237 239 238 238 242 243 241 243 242 241 242 243 244 245 246
281 278 275 271 268 266 266 266 264 263 264 265 267 264 253 249 248 249 249 245 245 247 248 249 248 245 243 243 244 240 240 240 241 243 244 245 246 245 246 245 243 244 245 246
280 277 274 271 268 267 267 266 264 260 261 264 266 262 255 251 254 254 252 250 250 248 249 250 247 245 245 246 247 244 242 243 243 244 246 248 249 249 246 246 244 244 245 246
278 275 273 271 269 268 266 267 263 260 261 263 263 262 256 255 256 255 255 254 253 252 252 251 247 246 245 246 248 247 246 246 246 248 250 249 251 250 247 247 247 247 247 247
276 274 272 270 269 269 268 267 265 261 262 263 262 261 257 257 257 254 253 256 257 257 254 252 250 248 248 250 251 249 248 249 250 251 251 250 250 249 249 249 248 248 248 248
275 273 272 271 269 269 267 266 264 261 262 263 261 263 261 258 258 256 252 255 257 256 251 250 250 250 251 252 254 252 250 251 251 252 253 251 250 249 251 251 251 250 250 250
273 272 271 271 270 269 267 266 263 260 260 261 262 263 265 263 258 258 254 255 256 257 257 254 254 253 253 254 255 254 252 253 254 254 254 252 250 252 253 254 253 252 252 252
274 271 270 270 270 269 268 266 263 262 261 261 262 264 266 264 259 256 255 255 255 258 260 259 257 256 255 255 256 256 255 256 256 256 256 256 255 254 256 256 255 254 254 252
274 271 270 269 268 267 265 264 263 262 262 261 261 261 262 262 261 259 257 257 257 259 260 260 258 258 257 256 257 258 258 258 258 258 258 258 257 258 259 259 258 257 256 255
273 271 268 266 265 264 262 261 260 261 264 263 262 261 262 262 262 262 261 259 258 258 259 261 262 261 260 258 258 258 258 258 258 258 258 259 259 260 262 261 260 258 257 258
271 270 267 265 263 263 261 260 260 261 263 263 263 261 261 262 263 263 263 261 259 259 260 261 263 265 264 262 261 261 260 260 259 259 259 260 260 260 261 262 262 260 260 260
269 268 266 264 262 261 261 261 261 262 261 263 263 262 263 263 263 263 262 262 261 261 261 262 263 264 264 264 263 263 263 262 261 261 261 261 262 262 262 262 263 263 262 262
266 265 265 263 261 261 261 261 262 262 262 262 263 264 264 263 263 264 263 262 261 261 262 263 263 263 264 264 264 263 263 262 262 263 262 262 263 263 263 263 262 263 263 264
264 265 265 264 263 262 261 261 261 260 261 262 263 263 262 263 263 263 263 262 262 262 263 263 263 263 263 264 264 262 261 262 262 262 263 263 264 265 264 264 264 263 263 263
263 264 264 263 263 262 261 260 260 260 261 263 263 263 262 263 262 262 262 263 263 264 264 264 263 263 263 263 263 263 262 262 262 263 263 264 264 265 265 265 265 264 264 263
263 263 263 263 263 263 262 261 261 261 262 263 263 263 264 263 262 262 262 263 264 263 263 263 263 263 263 263 263 263 263 263 263 263 263 263 264 265 265 265 265 265 264 263
263 264 264 264 263 263 262 262 262 262 263 264 264 265 264 263 263 263 263 264 264 263 262 262 262 262 263 264 265 265 265 265 264 264 263 264 264 264 264 264 264 264 264 263
263 263 263 263 262 261 263 262 261 262 263 264 265 265 265 263 262 263 264 264 265 263 262 262 262 263 263 264 266 266 266 266 266 264 264 264 264 264 264 264 264 264 264 263
261 261 261 263 263 263 262 262 263 263 263 264 266 265 265 264 263 263 264 265 264 263 262 262 262 263 264 265 266 267 267 267 266 265 264 264 263 263 264 265 264 265 264 264
259 259 260 261 263 265 265 265 266 266 265 265 265 265 265 265 264 263 264 264 264 263 262 263 264 264 265 266 267 268 268 267 266 266 265 264 263 263 265 265 265 265 264 265
259 259 259 260 262 264 265 266 267 267 267 266 266 266 265 265 264 264 263 263 263 263 263 264 265 265 266 267 268 268 268 268 267 266 266 266 265 265 265 266 266 266 265 266
258 259 260 260 261 262 263 264 265 267 267 267 267 266 266 265 265 264 263 263 263 264 264 265 265 266 267 268 269 269 269 269 268 267 267 267 266 266 266 267 267 267 266 267
259 260 261 262 262 262 262 264 265 266 267 268 268 268 268 268 267 266 264 264 264 264 265 265 266 267 268 269 269 270 270 269 269 268 268 268 267 267 266 266 267 268 268 268
258 259 259 260 261 262 263 264 265 265 267 268 269 269 269 268 267 267 266 264 264 265 265 266 267 268 269 270 270 271 271 271 270 269 268 268 267 267 267 266 267 267 268 268
257 258 258 259 261 261 261 263 264 265 266 267 268 269 269 269 268 267 266 265 265 266 267 267 268 269 270 270 271 272 272 271 270 269 268 267 267 267 267 267 267 268 268 268
257 257 258 259 260 261 261 262 264 265 267 267 268 269 268 267 267 267 267 267 267 268 268 268 268 269 270 271 272 272 272 271 270 269 267 267 267 267 267 267 268 268 269 269